This demonstration page uses our WeatherBlox Daily Observations layout. Learn more.

Hourly Observations for March 27, 2018

Temp ( °F °C ) Dew Point ( °F °C ) Humidity (%) Winds ( mph kmh ) Pressure ( in mb ) Visibility ( mi km ) Precip ( " mm )
12:15 am 00:15 Clear 37 3 37 2.5 97 97 N 6 9 30.09 1019 10 16.0934 0 0
12:35 am 00:35 Clear 35 1.5 34 1.3 99 99 N 5 7 30.12 1020 7 11.26538 0 0
12:55 am 00:55 Clear 35 1.5 35 1.5 100 100 N 3 6 30.15 1021 7 11.26538 0 0
1:15 am 01:15 Clear 34 0.9 33 0.8 99 99 Calm 30.15 1021 7 11.26538 0 0
1:35 am 01:35 Mostly Cloudy 34 0.9 34 0.9 100 100 WNW 6 9 30.18 1022 7 11.26538 0 0
1:55 am 01:55 Cloudy 35 1.7 35 1.7 100 100 WNW 3 6 30.18 1022 10 16.0934 0 0
2:15 am 02:15 Cloudy 35 1.6 34 1.2 97 97 WNW 5 7 30.18 1022 10 16.0934 0 0
2:35 am 02:35 Cloudy 35 1.5 34 1.3 99 99 NW 6 9 30.18 1022 10 16.0934 0 0
2:55 am 02:55 Cloudy 37 2.6 36 2.3 98 98 NNW 9 15 30.18 1022 10 16.0934 0 0
3:15 am 03:15 Cloudy 37 3 37 2.5 97 97 NNW 7 11 30.18 1022 10 16.0934 0 0
3:35 am 03:35 Partly Cloudy 36 2.2 35 1.6 96 96 NNW 6 9 30.18 1022 10 16.0934 0 0
3:55 am 03:55 Clear 35 1.5 34 1.1 97 97 NW 6 9 30.18 1022 10 16.0934 0 0
4:15 am 04:15 Clear 33 0.7 33 0.5 99 99 WNW 7 11 30.18 1022 10 16.0934 0 0
4:35 am 04:35 Clear 34 1.2 34 1.1 99 99 NNW 7 11 30.18 1022 10 16.0934 0 0
4:55 am 04:55 Clear 34 1 33 0.6 97 97 NNW 7 11 30.21 1023 10 16.0934 0 0
5:15 am 05:15 Clear 33 0.6 33 0.4 99 99 NNW 6 9 30.24 1024 10 16.0934 0 0
5:35 am 05:35 Clear 33 0.3 32 0.1 99 99 NNW 7 11 30.24 1024 10 16.0934 0 0
5:55 am 05:55 Clear 32 0.2 32 0.1 99 99 NNW 7 11 30.24 1024 10 16.0934 0 0
6:15 am 06:15 Clear 32 0.1 32 0 99 99 N 6 9 30.24 1024 10 16.0934 0 0
6:35 am 06:35 Clear 32 0 32 -0.1 99 99 NNW 6 9 30.24 1024 10 16.0934 0 0
6:55 am 06:55 Clear 32 -0.2 32 -0.2 100 100 NNW 7 11 30.24 1024 10 16.0934 0 0
7:15 am 07:15 Clear 32 -0.1 32 -0.1 100 100 NNW 6 9 30.24 1024 10 16.0934 0 0
7:35 am 07:35 Sunny 32 0 32 0 100 100 NNW 6 9 30.24 1024 10 16.0934 0 0
7:55 am 07:55 Sunny 32 0 32 0 100 100 NNW 7 11 30.24 1024 10 16.0934 0 0
8:15 am 08:15 Sunny 32 0 32 0 100 100 NW 6 9 30.24 1024 10 16.0934 0 0
8:35 am 08:35 Sunny 32 0 32 -0.1 99 99 NW 7 11 30.24 1024 10 16.0934 0 0
8:55 am 08:55 Sunny 32 0.1 32 0 99 99 NW 6 9 30.27 1025 10 16.0934 0 0
9:15 am 09:15 Sunny 34 1 33 0.6 97 97 NNW 7 11 30.27 1025 10 16.0934 0 0
9:35 am 09:35 Sunny 36 2.1 34 1.2 94 94 NNW 10 17 30.24 1024 10 16.0934 0 0
9:55 am 09:55 Sunny 37 2.5 33 0.7 88 88 NNW 12 19 30.24 1024 10 16.0934 0 0
10:15 am 10:15 Sunny 37 3 34 1 87 87 N 10 17 30.24 1024 10 16.0934 0 0
10:35 am 10:35 Sunny 39 3.7 34 1 83 83 N 12 19 30.24 1024 10 16.0934 0 0
10:55 am 10:55 Sunny 40 4.4 33 0.8 78 78 N 9 15 30.21 1023 10 16.0934 0 0
11:15 am 11:15 Sunny 40 4.6 33 0.6 76 76 N 9 15 30.21 1023 10 16.0934 0 0
11:35 am 11:35 Sunny 40 4.7 33 0.3 73 73 N 9 15 30.21 1023 10 16.0934 0 0
11:55 am 11:55 Sunny 41 5 33 0.3 72 72 N 9 15 30.21 1023 10 16.0934 0 0
12:15 pm 12:15 Sunny 42 5.5 33 0.3 69 69 N 6 9 30.21 1023 10 16.0934 0 0
12:35 pm 12:35 Sunny 44 6.7 32 0.1 63 63 N 7 11 30.21 1023 10 16.0934 0 0
12:55 pm 12:55 Sunny 45 7.3 32 0.2 61 61 NNE 9 15 30.21 1023 10 16.0934 0 0
1:15 pm 13:15 Sunny 46 7.7 31 -0.4 57 57 NNE 9 15 30.15 1021 10 16.0934 0 0
1:35 pm 13:35 Sunny 47 8.3 31 -0.3 55 55 NNE 5 7 30.15 1021 10 16.0934 0 0
1:55 pm 13:55 Sunny 48 8.9 31 -0.5 52 52 NNE 6 9 30.15 1021 10 16.0934 0 0
2:15 pm 14:15 Sunny 48 8.9 30 -1 50 50 Calm 30.15 1021 10 16.0934 0 0
2:35 pm 14:35 Sunny 50 9.9 31 -0.3 49 49 NNE 7 11 30.15 1021 10 16.0934 0 0
2:55 pm 14:55 Sunny 50 10 31 -0.8 47 47 N 3 6 30.15 1021 10 16.0934 0 0
3:15 pm 15:15 Sunny 50 10.2 31 -0.8 47 47 Calm 30.09 1019 10 16.0934 0 0
3:35 pm 15:35 Sunny 52 11 31 -0.4 46 46 Calm 30.09 1019 10 16.0934 0 0
3:55 pm 15:55 Sunny 51 10.6 30 -0.9 45 45 ESE 5 7 30.09 1019 10 16.0934 0 0
4:15 pm 16:15 Sunny 52 11 31 -0.8 44 44 SSW 3 6 30.09 1019 10 16.0934 0 0
4:35 pm 16:35 Sunny 52 11.1 31 -0.5 45 45 Calm 30.09 1019 10 16.0934 0 0
4:55 pm 16:55 Sunny 52 11.1 31 -0.5 45 45 E 5 7 30.06 1018 10 16.0934 0 0
5:15 pm 17:15 Sunny 53 11.4 31 -0.7 43 43 E 3 6 30.06 1018 10 16.0934 0 0
5:35 pm 17:35 Sunny 52 11.1 31 -0.3 46 46 E 6 9 30.06 1018 10 16.0934 0 0
5:55 pm 17:55 Sunny 52 11.1 31 -0.4 45 45 SE 8 13 30.06 1018 10 16.0934 0 0
6:15 pm 18:15 Sunny 52 11 31 -0.7 45 45 SSE 9 15 30.06 1018 10 16.0934 0 0
6:35 pm 18:35 Sunny 52 10.9 31 -0.6 45 45 SSE 8 13 30.06 1018 10 16.0934 0 0
6:55 pm 18:55 Sunny 51 10.6 31 -0.6 46 46 SSE 6 9 30.06 1018 10 16.0934 0 0
7:15 pm 19:15 Sunny 50 10.1 32 0 50 50 SSE 7 11 30.03 1017 10 16.0934 0 0
7:35 pm 19:35 Sunny 48 9.1 32 0.2 54 54 SSE 7 11 30.06 1018 10 16.0934 0 0
7:55 pm 19:55 Sunny 46 7.8 32 0.2 59 59 SSE 6 9 30.06 1018 10 16.0934 0 0
8:15 pm 20:15 Clear 45 7 32 0 61 61 S 6 9 30.06 1018 10 16.0934 0 0
8:35 pm 20:35 Clear 44 6.5 32 0 64 64 S 6 9 30.06 1018 10 16.0934 0 0
8:55 pm 20:55 Clear 42 5.8 32 0 67 67 S 6 9 30.09 1019 10 16.0934 0 0
9:15 pm 21:15 Clear 41 5.1 32 0 70 70 S 6 9 30.09 1019 10 16.0934 0 0
9:35 pm 21:35 Clear 40 4.5 31 -0.4 71 71 S 7 11 30.09 1019 10 16.0934 0 0
9:55 pm 21:55 Clear 39 3.8 31 -0.5 74 74 S 8 13 30.09 1019 10 16.0934 0 0
10:15 pm 22:15 Clear 39 3.8 31 -0.5 74 74 S 8 13 30.09 1019 10 16.0934 0 0
10:35 pm 22:35 Clear 38 3.2 31 -0.5 77 77 S 8 13 30.09 1019 10 16.0934 0 0
10:55 pm 22:55 Clear 37 2.5 31 -0.6 80 80 S 8 13 30.09 1019 10 16.0934 0 0
11:15 pm 23:15 Clear 37 2.7 31 -0.5 80 80 S 6 9 30.09 1019 10 16.0934 0 0
11:35 pm 23:35 Clear 37 2.6 31 -0.5 80 80 S 6 9 30.09 1019 10 16.0934 0 0
11:55 pm 23:55 Clear 37 2.7 31 -0.5 80 80 S 8 13 30.09 1019 10 16.0934 0 0

Powered by AerisWeather